Location: Newark
(13.8117°N, 3.6025°W)
Time: 16:54:23
(UTC+00:00)

OTV 5 (USA 277) - Visible Passes

Search period start: 19 October 2019 00:00
Search period end: 29 October 2019 00:00
Orbit: 310 x 324 km, 54.5° (Epoch: 17 October)

Date Brightness Start Highest point End Pass type
(mag) Time Alt. Az. Time Alt. Az. Time Alt. Az.
22 Oct ? 05:37:57 10° N 05:39:58 19° NE 05:41:59 10° ESE visible
22 Oct ? 18:38:51 10° SSE 18:39:54 13° SE 18:39:54 13° SE visible
23 Oct ? 18:52:06 10° SSW 18:54:47 70° ESE 18:55:06 60° ENE visible
24 Oct ? 19:07:10 10° WSW 19:09:18 20° NW 19:10:14 17° NNW visible
25 Oct ? 04:49:03 37° NE 04:49:20 39° NE 04:51:54 10° SE visible
26 Oct ? 05:04:15 30° SW 05:04:15 30° SW 05:06:16 10° S visible
27 Oct ? 18:17:58 10° WNW 18:18:41 11° NW 18:19:24 10° NW visible
